Stockton Lake Weather Center

Moon Phase Calendar



Stockton Lake Water Level
Online Cameras

 


      

Current Conditions in Stockton
9/17/2021 7:10:06 AM

66°F
Feels Like 66
Clear
Humidity
98%
Pressure
30.09"
Wind
1 mph (SE)
Dew Point
65°F
UV Index
0/10 (Low)
Visibility
6 mi

Hourly Forecast

Date & Time Fri, Sep 17
7:00 AM
Fri, Sep 17
8:00 AM
Fri, Sep 17
9:00 AM
Fri, Sep 17
10:00 AM
Fri, Sep 17
11:00 AM
Fri, Sep 17
12:00 PM
Fri, Sep 17
1:00 PM
Fri, Sep 17
2:00 PM
Fri, Sep 17
3:00 PM
Fri, Sep 17
4:00 PM
Fri, Sep 17
5:00 PM
Fri, Sep 17
6:00 PM
Fri, Sep 17
7:00 PM
Fri, Sep 17
8:00 PM
Fri, Sep 17
9:00 PM
Fri, Sep 17
10:00 PM
Fri, Sep 17
11:00 PM
Sat, Sep 18
12:00 AM
Sat, Sep 18
1:00 AM
Sat, Sep 18
2:00 AM
Sat, Sep 18
3:00 AM
Sat, Sep 18
4:00 AM
Sat, Sep 18
5:00 AM
Sat, Sep 18
6:00 AM
Sat, Sep 18
7:00 AM
Sat, Sep 18
8:00 AM
Sat, Sep 18
9:00 AM
Sat, Sep 18
10:00 AM
Sat, Sep 18
11:00 AM
Sat, Sep 18
12:00 PM
Sat, Sep 18
1:00 PM
Sat, Sep 18
2:00 PM
Sat, Sep 18
3:00 PM
Sat, Sep 18
4:00 PM
Sat, Sep 18
5:00 PM
Sat, Sep 18
6:00 PM
Sat, Sep 18
7:00 PM
Sat, Sep 18
8:00 PM
Sat, Sep 18
9:00 PM
Sat, Sep 18
10:00 PM
Sat, Sep 18
11:00 PM
Sun, Sep 19
12:00 AM
Sun, Sep 19
1:00 AM
Sun, Sep 19
2:00 AM
Sun, Sep 19
3:00 AM
Sun, Sep 19
4:00 AM
Sun, Sep 19
5:00 AM
Sun, Sep 19
6:00 AM
Condition
Clear

Clear

Clear

Clear

Clear

Clear

Clear

Clear

Clear

Clear

Clear

Clear

Clear

Clear

Clear

Clear

Clear

Clear

Clear

Clear

Clear

Clear

Clear

Clear

Clear

Clear

Clear

Clear

Clear

Clear

Clear

Clouds

Clouds

Clouds

Clouds

Clouds

Clouds

Clouds

Clouds

Clouds

Clouds

Clouds

Clouds

Clouds

Clouds

Clouds

Clouds

Clouds
Temperature 66°F66°F68°F72°F76°F82°F84°F86°F87°F87°F87°F84°F78°F75°F73°F71°F69°F69°F69°F69°F68°F67°F67°F67°F66°F69°F73°F77°F80°F83°F85°F87°F88°F88°F87°F84°F79°F76°F75°F73°F71°F70°F69°F68°F68°F68°F68°F68°F
Feels Like 66°F67°F69°F73°F77°F83°F85°F87°F87°F87°F86°F85°F78°F75°F73°F71°F69°F69°F70°F69°F69°F68°F68°F68°F67°F70°F74°F78°F83°F86°F88°F89°F90°F90°F89°F87°F79°F77°F75°F74°F72°F71°F70°F69°F69°F69°F69°F69°F
Cloudiness 0%0%0%0%0%0%0%0%0%0%0%0%0%0%0%0%0%0%0%0%0%0%0%0%2%10%8%7%5%4%4%17%14%12%16%22%27%52%53%48%42%39%34%18%28%26%22%18%
Visibility 6 mi6 mi6 mi6 mi6 mi6 mi6 mi6 mi6 mi6 mi6 mi6 mi6 mi6 mi6 mi6 mi6 mi6 mi6 mi6 mi6 mi6 mi6 mi6 mi6 mi6 mi6 mi6 mi6 mi6 mi6 mi6 mi6 mi6 mi6 mi6 mi6 mi6 mi6 mi6 mi6 mi6 mi6 mi6 mi6 mi6 mi6 mi6 mi
Precipitation 0%0%0%0%0%0%0%0%0%0%0%0%0%0%0%0%0%0%0%0%0%0%0%0%0%0%0%0%0%0%0%10%17%0%0%0%0%0%0%0%0%0%0%0%0%0%0%0%
Humidity 98%96%90%81%70%56%50%47%43%40%41%51%54%54%58%61%64%74%82%88%91%92%92%93%94%91%82%73%65%60%55%51%47%46%50%59%66%70%72%76%84%89%92%93%94%95%95%95%
Dew Point 65°F65°F65°F66°F66°F64°F63°F63°F61°F60°F60°F64°F60°F58°F57°F56°F56°F60°F63°F65°F65°F65°F65°F64°F64°F66°F67°F68°F68°F67°F67°F67°F65°F65°F65°F68°F67°F66°F65°F65°F66°F66°F66°F66°F66°F66°F66°F66°F
Pressure 30.09"30.09"30.06"30.06"30.06"30.03"30.03"30"30"29.97"29.97"29.97"29.97"30"30.03"30.06"30.06"30.06"30.06"30.06"30.06"30.06"30.06"30.06"30.09"30.09"30.09"30.12"30.09"30.09"30.06"30.03"30"29.97"29.97"29.97"29.97"30"30"30.03"30.03"30.03"30.03"30.03"30.03"30"30"30"
Wind Speed 6.6 mph5.6 mph5 mph4.3 mph3.7 mph3.6 mph5.4 mph7.2 mph8.1 mph8.2 mph8.1 mph5.3 mph5.1 mph5.5 mph5.9 mph5.6 mph5.8 mph6.8 mph7.3 mph6.5 mph5.3 mph3.7 mph3.6 mph4.4 mph4.4 mph4.7 mph5.5 mph6.4 mph7.2 mph7.8 mph7.9 mph7.9 mph7.6 mph6.8 mph6.5 mph5.9 mph5.7 mph5.9 mph6.2 mph7.5 mph7.3 mph6.8 mph6.5 mph6.3 mph6.5 mph6.4 mph5.9 mph6.3 mph
Wind
Direction
169°
S
160°
SSE
162°
SSE
150°
SSE
128°
SE
77°
ENE
50°
NE
34°
NE
44°
NE
52°
NE
55°
NE
36°
NE

N
10°
N
40°
NE
64°
ENE
100°
E
135°
SE
155°
SSE
154°
SSE
132°
SE
130°
SE
103°
ESE
105°
ESE
106°
ESE
96°
E
85°
E
75°
ENE
72°
ENE
74°
ENE
71°
ENE
68°
ENE
66°
ENE
81°
E
125°
SE
145°
SE
143°
SE
139°
SE
141°
SE
152°
SSE
144°
SE
133°
SE
133°
SE
133°
SE
143°
SE
146°
SE
147°
SSE
140°
SE

Daily Forecast

Date High Low Precip. Humidity
Today
Sep 17

Clear
87 °F
65 °F
0%
50%
Saturday
Sep 18

Clear
88 °F
66 °F
17%
55%
Sunday
Sep 19

Rain
87 °F
68 °F
63%
54%
Monday
Sep 20

Rain
92 °F
67 °F
88%
42%
Tuesday
Sep 21

Rain
75 °F
59 °F
100%
43%
Wednesday
Sep 22

Clear
75 °F
51 °F
0%
35%
Thursday
Sep 23

Clear
78 °F
51 °F
0%
29%
Friday
Sep 24

Rain
71 °F
54 °F
81%
51%
Saturday
Sep 25

Rain
76 °F
53 °F
49%
41%
Sunday
Sep 26

Clouds
63 °F
43 °F
0%
40%
Monday
Sep 27

Clear
71 °F
45 °F
0%
38%
Tuesday
Sep 28

Clear
87 °F
51 °F
0%
25%
Wednesday
Sep 29

Rain
89 °F
59 °F
51%
33%
Thursday
Sep 30

Clouds
82 °F
57 °F
0%
28%
Friday
Oct 1

Clouds
76 °F
49 °F
0%
22%
Saturday
Oct 2

Clouds
86 °F
59 °F
0%
22%

Temperature 8-14 Day Outlook



Precipitation 8-14 Day Outlook




Quick Links
Stockton Lake News
Stockton Lake Photos
Stockton Lake Videos




About Us
Contact Us
Site Map
Search Site
Advertise With Us
   
Stockton.USLakes.info
THE STOCKTON LAKE WEBSITE

Copyright 2021, Lakes Online
Privacy    |    Legal